Content
SEND FEEDBACK

Daily
Averages
Monthly
Summary
United States of America

LITTLE ROCK, ARKANSAS


Home > North America > United States > Arkansas
Elevation: 78 meters     Latitude: 34 44N     Longitude: 092 14W

WEATHER
 
SELECT A DAY
Number of Records: 192,651;   Date Range: 1/1/95 - 11/23/14
 
SHARE

PRINT THIS DATA

[ ← Previous Day ]
WEATHER ALMANAC - 13 FEBRUARY, 2013
[ Next Day → ]
[ °F ]   °C
Weather ElementAverageHighLow
Temperature6.7 °C11.7 °C (3:53 pm)3.9 °C (4:53 am)
Dewpoint2.6 °C5 °C (12:53 am)1.1 °C (4:53 pm)
Humidity76.9 %96 % (12:53 am)48 % (4:53 pm)
Barometer1015.9 hPa1018.6 hPa (10:53 am)1012.2 hPa (12:53 am)
Wind Speed12.7 km/h20.4 km/h (9:19 am)
Weather ElementAverage
Visibility15.8 km
Wind DirectionWNW (282.1 °)

Weather ElementTotal
Precipitation0.51 mm
Heating Degree Days10.6 (Base 18.3)
Averaged from 28 records on 13 February, 2013
WEATHER CONDITIONS BREAKOUT
WIND DIRECTION BREAKOUT
WEATHER BY HOUR - 13 FEBRUARY, 2013
[ °F ]   °C
Local TimeTemperatureDewpointHumidityBarometerVisibilityWind DirectionWind SpeedGust SpeedPrecipitationEventsConditions
12:53 AM5.6 °C5 °C96 %1012.2 hPa9.7 kmNNW (330°)13 km/h0.51 mmRainLight Rain
1:53 AM5 °C3.3 °C89 %1012.9 hPa11.3 kmNNW (340°)18.5 km/h0 mmRainLight Rain
2:53 AM4.4 °C3.3 °C93 %1013.2 hPa16.1 kmNW (320°)14.8 km/h0 mmOvercast
3:14 AM4 °C3 °C93 %1012.9 hPa16.1 kmNNW (330°)16.7 km/hOvercast
3:53 AM4.4 °C2.8 °C89 %1013.5 hPa16.1 kmNNW (330°)16.7 km/hOvercast
4:53 AM3.9 °C2.8 °C93 %1014.2 hPa16.1 kmNW (320°)13 km/h0 mmOvercast
5:53 AM3.9 °C2.8 °C93 %1014.6 hPa16.1 kmNW (320°)9.3 km/h0 mmOvercast
6:53 AM4.4 °C2.8 °C89 %1015.6 hPa16.1 kmWNW (300°)13 km/h0 mmOvercast
7:38 AM4 °C3 °C93 %1015.9 hPa16.1 kmWNW (300°)11.1 km/hOvercast
7:53 AM5 °C2.8 °C86 %1016.6 hPa16.1 kmWNW (300°)14.8 km/hOvercast
8:53 AM5.6 °C3.3 °C85 %1017.3 hPa16.1 kmNNW (330°)14.8 km/hOvercast
9:19 AM6 °C3 °C81 %1017.6 hPa16.1 kmNW (310°)20.4 km/hOvercast
9:53 AM6.1 °C2.8 °C80 %1018.3 hPa16.1 kmNW (310°)18.5 km/hOvercast
10:53 AM7.2 °C2.8 °C74 %1018.6 hPa16.1 kmNW (310°)14.8 km/hOvercast
11:53 AM7.8 °C2.8 °C71 %1017.9 hPa16.1 kmNW (310°)13 km/hOvercast
12:53 PM8.3 °C2.8 °C68 %1017.3 hPa16.1 kmNW (310°)20.4 km/hOvercast
1:53 PM10 °C2.2 °C59 %1016.6 hPa16.1 kmNW (310°)14.8 km/hOvercast
2:42 PM11 °C2 °C54 %1015.6 hPa16.1 kmWNW (290°)9.3 km/hScattered Clouds
2:53 PM10.6 °C2.2 °C56 %1015.9 hPa16.1 kmWest (280°)11.1 km/hScattered Clouds
3:53 PM11.7 °C1.7 °C50 %1015.6 hPa16.1 kmWNW (300°)11.1 km/hPartly Cloudy
4:53 PM11.7 °C1.1 °C48 %1015.6 hPa16.1 kmNW (310°)9.3 km/hPartly Cloudy
5:53 PM9.4 °C1.7 °C59 %1015.9 hPa16.1 kmSW (230°)7.4 km/hClear
6:53 PM8.9 °C2.2 °C63 %1016.3 hPa16.1 kmCalmClear
7:53 PM7.2 °C2.2 °C71 %1016.6 hPa16.1 kmSSW (210°)7.4 km/hClear
8:53 PM6.1 °C2.2 °C76 %1016.9 hPa16.1 kmSSW (210°)7.4 km/hClear
9:53 PM5 °C1.7 °C79 %1017.3 hPa16.1 kmSW (230°)11.1 km/hClear
10:53 PM5 °C2.2 °C82 %1017.3 hPa16.1 kmSW (230°)9.3 km/hClear
11:53 PM5 °C2.2 °C82 %1017.3 hPa16.1 kmSW (230°)14.8 km/hClear
Hourly data recorded from KLIT, located 0 kilometers away from Little Rock, Arkansas







STORIES FROM OUR PARTNERS